User: anonymous   Login
Location: Apollinopolis Magna
(24.9792°N, 32.8772°E)
Time: 14:05:42
(UTC+00:00)
Language:

CENTAUR R/B - Orbit

View from above orbital plane
View from above orbital plane
View from above satellite
View from above satellite

Ground track
Ground track

The orbit data is extracted from the following two-line orbital elements,

1 26906U 01040B   21108.83380894 0.00000000  00000-0  00000-0 0    06
2 26906  63.4493 336.0143 0471166 339.2676  20.7324 13.44078920    01
Epoch (UTC): 18 April 2021 20:00:41
Eccentricity: 0.0471166
inclination: 63.4493°
perigee height: 742 km
apogee height: 1446 km
right ascension of ascending node: 336.0143°
argument of perigee: 339.2676°
revolutions per day: 13.44078920
mean anomaly at epoch: 20.7324°
orbit number at epoch: 0

The dashed part of the orbit path shows where the satellite is in the earth's shadow,  

DLR